Location: Complexul Astronomic Baia Mare
(47.6577°N, 23.5639°E)
Time: 05:48:19
(UTC+03:00)

ISS - Pass Details

Date: 09 March 2017
Orbit: 399 x 409 km, 51.6° (Epoch: 30 March)

Event Time Altitude Azimuth Distance (km) Brightness Sun altitude
Exits shadow 04:49:07 65° 109° (ESE) 455 -3.5 -21.1°
Drops below altitude 10° 04:52:08 10° 68° (ENE) 1,481 0.2 -20.6°
Sets 04:54:14 0° 67° (ENE) 2,346 1.6 -20.3°
